AFL1364 UUEE-URMT

Flight info

Callsign AFL1364
Flight time 3h 9m
Altitude 35000
Route N0450F350 TOGMO M56 ABAGI B105 NIMTA/K0841F360 B105 NATIT DCT MOLED N50 LIDUS G242 ZG DCT ITAKA DCT OBBUD DCT AMKOL DCT GOTIK DCT MEMZA A962 RUGIK
Aircraft A320/M-SDE2E3FGHIRWXY/L

Departure

Time 2026-05-07 13:49
Airport Sheremetyevo International Airport (UUEE)

Arrival

Time 2026-05-07 16:59
Airport Stavropol Shpakovskoye Airport (URMT)
Time Latitude Longitude Altitude Speed Heading
2026-05-07 13:26 55.97796 37.41814 639 ft 0 kts 345°
2026-05-07 13:37 55.97793 37.41815 639 ft 0 kts 345°
2026-05-07 13:37 55.97784 37.41819 640 ft 6 kts 345°
2026-05-07 13:38 55.97753 37.41833 639 ft 10 kts 345°
2026-05-07 13:38 55.97729 37.41834 641 ft 5 kts 31°
2026-05-07 13:38 55.97715 37.41801 640 ft 0 kts 75°
2026-05-07 13:43 55.97716 37.41807 641 ft 1 kts 75°
2026-05-07 13:43 55.97720 37.41832 640 ft 3 kts 73°
2026-05-07 13:43 55.97727 37.41875 639 ft 4 kts 82°
2026-05-07 13:43 55.97737 37.41937 644 ft 7 kts 72°
2026-05-07 13:44 55.97753 37.42034 643 ft 10 kts 75°
2026-05-07 13:44 55.97774 37.42170 640 ft 13 kts 75°
2026-05-07 13:44 55.97778 37.42349 639 ft 15 kts 131°
2026-05-07 13:44 55.97733 37.42508 639 ft 16 kts 82°
2026-05-07 13:45 55.97767 37.42722 641 ft 20 kts 77°
2026-05-07 13:45 55.97804 37.42981 638 ft 23 kts 74°
2026-05-07 13:45 55.97850 37.43282 644 ft 27 kts 75°
2026-05-07 13:45 55.97900 37.43618 641 ft 29 kts 75°
2026-05-07 13:46 55.97926 37.43794 643 ft 13 kts 75°
2026-05-07 13:46 55.97947 37.43949 642 ft 4 kts 85°
2026-05-07 13:46 55.97948 37.43952 643 ft 1 kts 85°
2026-05-07 13:46 55.97945 37.44005 641 ft 11 kts 113°
2026-05-07 13:47 55.97886 37.44059 639 ft 13 kts 167°
2026-05-07 13:47 55.97784 37.44101 639 ft 17 kts 168°
2026-05-07 13:47 55.97653 37.44163 642 ft 21 kts 165°
2026-05-07 13:47 55.97545 37.44153 641 ft 14 kts 229°
2026-05-07 13:48 55.97527 37.44081 639 ft 3 kts 255°
2026-05-07 13:48 55.97526 37.44075 639 ft 0 kts 255°
2026-05-07 13:49 55.97481 37.43771 639 ft 73 kts 255°
2026-05-07 13:49 55.97274 37.42360 640 ft 158 kts 255°
2026-05-07 13:49 55.96969 37.40316 1355 ft 172 kts 255°
2026-05-07 13:49 55.96651 37.38247 2433 ft 173 kts 254°
2026-05-07 13:50 55.96302 37.36058 3116 ft 199 kts 255°
2026-05-07 13:50 55.95922 37.33490 3777 ft 226 kts 255°
2026-05-07 13:50 55.95508 37.30649 4580 ft 247 kts 255°
2026-05-07 13:50 55.95052 37.27559 5402 ft 265 kts 255°
2026-05-07 13:51 55.94572 37.24344 6556 ft 269 kts 255°
2026-05-07 13:51 55.94081 37.21085 7703 ft 274 kts 255°
2026-05-07 13:51 55.93587 37.17818 8785 ft 279 kts 255°
2026-05-07 13:51 55.93076 37.14447 9864 ft 284 kts 255°
2026-05-07 13:52 55.92556 37.11022 10920 ft 289 kts 255°
2026-05-07 13:52 55.92026 37.07538 11946 ft 293 kts 255°
2026-05-07 13:52 55.91665 37.03948 12918 ft 298 kts 271°
2026-05-07 13:52 55.92115 37.00339 13857 ft 303 kts 295°
2026-05-07 13:53 55.93377 36.97337 14765 ft 307 kts 319°
2026-05-07 13:53 55.95112 36.95062 15655 ft 312 kts 326°
2026-05-07 13:53 55.96972 36.93019 16526 ft 317 kts 335°
2026-05-07 13:53 55.99111 36.92054 17349 ft 322 kts 358°
2026-05-07 13:54 56.01328 36.92672 18154 ft 327 kts 21°
2026-05-07 13:54 56.03324 36.94650 18930 ft 331 kts 33°
2026-05-07 13:54 56.05258 36.96944 19710 ft 335 kts 34°
2026-05-07 13:54 56.07203 36.99286 20471 ft 339 kts 34°
2026-05-07 13:55 56.09178 37.01648 21206 ft 343 kts 33°
2026-05-07 13:55 56.11017 37.04388 21902 ft 347 kts 49°
2026-05-07 13:55 56.12296 37.08078 22565 ft 352 kts 69°
2026-05-07 13:55 56.12977 37.12319 23118 ft 360 kts 76°
2026-05-07 13:56 56.13603 37.16786 23301 ft 379 kts 76°
2026-05-07 13:56 56.14252 37.21435 23757 ft 387 kts 77°
2026-05-07 13:56 56.14522 37.26237 24400 ft 390 kts 94°
2026-05-07 13:56 56.13983 37.31002 24988 ft 393 kts 111°
2026-05-07 13:57 56.12675 37.35313 25569 ft 396 kts 128°
2026-05-07 13:57 56.10711 37.38792 26115 ft 400 kts 144°
2026-05-07 13:57 56.08286 37.41228 26647 ft 403 kts 156°
2026-05-07 13:57 56.05684 37.43139 27174 ft 406 kts 159°
2026-05-07 13:58 56.03046 37.45013 27682 ft 409 kts 158°
2026-05-07 13:58 56.00410 37.46995 28183 ft 412 kts 157°
2026-05-07 13:58 55.97812 37.49206 28643 ft 416 kts 149°
2026-05-07 13:58 55.95535 37.52393 29087 ft 419 kts 134°
2026-05-07 13:59 55.93760 37.56526 29504 ft 422 kts 120°
2026-05-07 13:59 55.92605 37.61347 29917 ft 425 kts 105°
2026-05-07 13:59 55.92016 37.66534 30341 ft 428 kts 98°
2026-05-07 13:59 55.91488 37.71766 30764 ft 431 kts 104°
2026-05-07 14:00 55.90575 37.76875 31174 ft 434 kts 112°
2026-05-07 14:00 55.89262 37.81723 31558 ft 436 kts 118°
2026-05-07 14:00 55.87804 37.86482 31940 ft 439 kts 120°
2026-05-07 14:00 55.86006 37.90882 32301 ft 441 kts 133°
2026-05-07 14:01 55.83718 37.94422 32636 ft 443 kts 146°
2026-05-07 14:01 55.80998 37.97011 32972 ft 445 kts 159°
2026-05-07 14:01 55.78014 37.98474 33292 ft 447 kts 172°
2026-05-07 14:01 55.74906 37.98746 33599 ft 449 kts 184°
2026-05-07 14:02 55.71824 37.97816 33902 ft 451 kts 197°
2026-05-07 14:02 55.68922 37.95733 34194 ft 452 kts 209°
2026-05-07 14:02 55.66330 37.92586 34516 ft 453 kts 221°
2026-05-07 14:02 55.63944 37.88950 34860 ft 453 kts 216°
2026-05-07 14:03 55.61234 37.86132 34991 ft 451 kts 204°
2026-05-07 14:03 55.58263 37.84380 35000 ft 450 kts 192°
2026-05-07 14:03 55.55158 37.83780 35002 ft 451 kts 180°
2026-05-07 14:03 55.52035 37.84357 35001 ft 452 kts 167°
2026-05-07 14:04 55.49046 37.86052 35002 ft 452 kts 158°
2026-05-07 14:04 55.43112 37.89670 35003 ft 452 kts 165°
2026-05-07 14:05 55.37215 37.93430 34995 ft 452 kts 153°
2026-05-07 14:05 55.31933 37.99285 34997 ft 452 kts 146°
2026-05-07 14:06 55.26700 38.05445 35004 ft 453 kts 146°
2026-05-07 14:06 55.21457 38.11586 35007 ft 453 kts 146°
2026-05-07 14:07 55.16208 38.17716 35008 ft 453 kts 146°
2026-05-07 14:07 55.10958 38.23830 35012 ft 453 kts 146°
2026-05-07 14:08 55.05707 38.29925 35007 ft 453 kts 147°
2026-05-07 14:08 55.00451 38.36007 35008 ft 453 kts 147°
2026-05-07 14:09 54.95192 38.42072 35002 ft 453 kts 147°
2026-05-07 14:09 54.89935 38.48117 35006 ft 453 kts 147°
2026-05-07 14:10 54.84673 38.54147 35004 ft 453 kts 147°
2026-05-07 14:10 54.79418 38.60151 35001 ft 452 kts 147°
2026-05-07 14:11 54.74177 38.66057 35000 ft 452 kts 148°
2026-05-07 14:11 54.68777 38.71635 34996 ft 452 kts 149°
2026-05-07 14:12 54.63371 38.77180 34997 ft 452 kts 149°
2026-05-07 14:12 54.57979 38.82757 35004 ft 452 kts 149°
2026-05-07 14:13 54.52590 38.88343 34998 ft 452 kts 149°
2026-05-07 14:13 54.47201 38.93912 34999 ft 452 kts 149°
2026-05-07 14:14 54.41845 38.99564 34994 ft 452 kts 143°
2026-05-07 14:14 54.39526 39.03191 34990 ft 452 kts 131°
2026-05-07 14:14 54.37711 39.07577 34993 ft 452 kts 118°
2026-05-07 14:15 54.35238 39.17480 34986 ft 452 kts 112°
2026-05-07 14:15 54.32856 39.27449 34991 ft 452 kts 112°
2026-05-07 14:16 54.30446 39.37404 34998 ft 453 kts 112°
2026-05-07 14:16 54.28020 39.47366 34999 ft 453 kts 112°
2026-05-07 14:17 54.25587 39.57311 35004 ft 453 kts 112°
2026-05-07 14:17 54.23143 39.67257 35001 ft 454 kts 113°
2026-05-07 14:18 54.20691 39.77193 35007 ft 454 kts 113°
2026-05-07 14:18 54.18230 39.87117 35009 ft 454 kts 113°
2026-05-07 14:19 54.15760 39.97033 35009 ft 454 kts 113°
2026-05-07 14:19 54.13284 40.06932 35009 ft 454 kts 113°
2026-05-07 14:20 54.11076 40.16914 35004 ft 453 kts 106°
2026-05-07 14:20 54.08469 40.26617 35002 ft 452 kts 127°
2026-05-07 14:21 54.04107 40.34307 34995 ft 452 kts 137°
2026-05-07 14:21 53.99468 40.41508 35001 ft 452 kts 138°
2026-05-07 14:22 53.94829 40.48714 34996 ft 452 kts 137°
2026-05-07 14:22 53.90201 40.55926 34992 ft 452 kts 137°
2026-05-07 14:23 53.85564 40.63133 34993 ft 452 kts 137°
2026-05-07 14:23 53.80923 40.70320 34994 ft 452 kts 137°
2026-05-07 14:24 53.76273 40.77494 35009 ft 452 kts 138°
2026-05-07 14:24 53.71622 40.84648 35001 ft 452 kts 138°
2026-05-07 14:25 53.66961 40.91795 34996 ft 453 kts 138°
2026-05-07 14:25 53.62329 40.98876 35002 ft 453 kts 138°
2026-05-07 14:26 53.57663 41.05987 34997 ft 453 kts 138°
2026-05-07 14:26 53.52985 41.13094 34998 ft 453 kts 138°
2026-05-07 14:27 53.48299 41.20189 35003 ft 454 kts 138°
2026-05-07 14:27 53.43616 41.27260 35000 ft 452 kts 138°
2026-05-07 14:28 53.38934 41.34307 35001 ft 453 kts 138°
2026-05-07 14:28 53.34246 41.41341 35003 ft 452 kts 138°
2026-05-07 14:29 53.29554 41.48360 35002 ft 452 kts 138°
2026-05-07 14:29 53.24861 41.55359 35001 ft 452 kts 138°
2026-05-07 14:30 53.20166 41.62338 34998 ft 452 kts 138°
2026-05-07 14:30 53.15466 41.69304 34997 ft 452 kts 139°
2026-05-07 14:31 53.10765 41.76252 35000 ft 452 kts 139°
2026-05-07 14:31 53.06062 41.83180 34996 ft 452 kts 139°
2026-05-07 14:32 53.01350 41.90100 34992 ft 452 kts 139°
2026-05-07 14:32 52.96636 41.97003 34997 ft 452 kts 139°
2026-05-07 14:33 52.91918 42.03891 35000 ft 452 kts 139°
2026-05-07 14:33 52.87990 42.09608 35002 ft 452 kts 139°
2026-05-07 14:34 52.82490 42.17591 34996 ft 452 kts 139°
2026-05-07 14:34 52.77755 42.24441 34999 ft 452 kts 139°
2026-05-07 14:35 52.73783 42.30172 34995 ft 453 kts 139°
2026-05-07 14:35 52.69069 42.36954 35001 ft 453 kts 139°
2026-05-07 14:36 52.64321 42.43764 35008 ft 453 kts 139°
2026-05-07 14:36 52.59568 42.50562 35005 ft 453 kts 139°
2026-05-07 14:37 52.54810 42.57347 35003 ft 453 kts 139°
2026-05-07 14:37 52.47663 42.67500 35000 ft 453 kts 139°
2026-05-07 14:38 52.42896 42.74246 34999 ft 453 kts 139°
2026-05-07 14:38 52.38124 42.80979 35010 ft 453 kts 139°
2026-05-07 14:39 52.33352 42.87693 34999 ft 453 kts 139°
2026-05-07 14:39 52.28573 42.94397 35005 ft 452 kts 139°
2026-05-07 14:40 52.23792 43.01084 35005 ft 452 kts 140°
2026-05-07 14:40 52.19008 43.07756 35003 ft 452 kts 140°
2026-05-07 14:41 52.14221 43.14412 35007 ft 452 kts 140°
2026-05-07 14:41 52.09460 43.21011 34993 ft 452 kts 140°
2026-05-07 14:42 52.04669 43.27634 34997 ft 452 kts 140°
2026-05-07 14:42 51.99871 43.34247 34999 ft 452 kts 140°
2026-05-07 14:43 51.95073 43.40841 34999 ft 452 kts 140°
2026-05-07 14:43 51.90268 43.47425 35002 ft 452 kts 140°
2026-05-07 14:44 51.85458 43.53997 35007 ft 452 kts 140°
2026-05-07 14:44 51.80645 43.60554 35002 ft 452 kts 140°
2026-05-07 14:45 51.75829 43.67097 34998 ft 452 kts 140°
2026-05-07 14:45 51.71003 43.73634 34999 ft 452 kts 140°
2026-05-07 14:46 51.66210 43.80108 35005 ft 452 kts 140°
2026-05-07 14:46 51.61384 43.86608 35000 ft 452 kts 140°
2026-05-07 14:47 51.56549 43.93101 34995 ft 453 kts 140°
2026-05-07 14:47 51.51713 43.99577 35004 ft 453 kts 140°
2026-05-07 14:48 51.49282 44.02825 35164 ft 455 kts 140°
2026-05-07 14:48 51.46851 44.06069 35573 ft 454 kts 140°
2026-05-07 14:48 51.44426 44.09301 35904 ft 453 kts 140°
2026-05-07 14:48 51.42005 44.12521 35995 ft 451 kts 140°
2026-05-07 14:49 51.37179 44.18928 36000 ft 450 kts 140°
2026-05-07 14:49 51.32348 44.25324 35998 ft 451 kts 140°
2026-05-07 14:50 51.27518 44.31702 36001 ft 451 kts 140°
2026-05-07 14:50 51.22709 44.38040 35999 ft 451 kts 141°
2026-05-07 14:51 51.17642 44.43864 36001 ft 449 kts 154°
2026-05-07 14:51 51.14725 44.45620 35993 ft 448 kts 166°
2026-05-07 14:51 51.11651 44.46400 35988 ft 447 kts 178°
2026-05-07 14:52 51.05441 44.45934 35984 ft 447 kts 184°
2026-05-07 14:52 50.99227 44.45341 35990 ft 447 kts 184°
2026-05-07 14:53 50.93008 44.44761 35991 ft 448 kts 184°
2026-05-07 14:53 50.86787 44.44182 35994 ft 448 kts 184°
2026-05-07 14:54 50.80556 44.43603 35999 ft 448 kts 184°
2026-05-07 14:54 50.74367 44.43030 35998 ft 449 kts 184°
2026-05-07 14:55 50.68127 44.42453 35998 ft 449 kts 184°
2026-05-07 14:55 50.61888 44.41877 36002 ft 449 kts 184°
2026-05-07 14:56 50.55636 44.41302 36003 ft 450 kts 184°
2026-05-07 14:56 50.49388 44.40729 36008 ft 450 kts 184°
2026-05-07 14:57 50.43136 44.40157 36009 ft 450 kts 184°
2026-05-07 14:57 50.36887 44.39587 36006 ft 450 kts 184°
2026-05-07 14:58 50.30682 44.39023 36005 ft 450 kts 184°
2026-05-07 14:58 50.24435 44.38456 36005 ft 449 kts 184°
2026-05-07 14:59 50.18193 44.37891 36004 ft 449 kts 184°
2026-05-07 14:59 50.11950 44.37327 36001 ft 449 kts 184°
2026-05-07 15:00 50.05708 44.36765 36001 ft 449 kts 184°
2026-05-07 15:00 49.99472 44.36205 35998 ft 449 kts 184°
2026-05-07 15:01 49.93238 44.35646 35993 ft 449 kts 184°
2026-05-07 15:01 49.87044 44.35093 36000 ft 449 kts 184°
2026-05-07 15:02 49.80810 44.34538 35997 ft 449 kts 184°
2026-05-07 15:02 49.74574 44.33984 36001 ft 449 kts 184°
2026-05-07 15:03 49.68341 44.33431 36002 ft 449 kts 184°
2026-05-07 15:03 49.62104 44.32880 36002 ft 449 kts 184°
2026-05-07 15:04 49.55897 44.33513 36001 ft 449 kts 167°
2026-05-07 15:04 49.50015 44.36727 35998 ft 449 kts 157°
2026-05-07 15:05 49.44249 44.40432 35998 ft 449 kts 158°
2026-05-07 15:05 49.38472 44.44104 36001 ft 449 kts 158°
2026-05-07 15:06 49.32730 44.47739 35998 ft 450 kts 158°
2026-05-07 15:06 49.26945 44.51392 36000 ft 450 kts 158°
2026-05-07 15:07 49.21298 44.55498 35996 ft 450 kts 150°
2026-05-07 15:07 49.15896 44.60336 35997 ft 450 kts 150°
2026-05-07 15:08 49.10435 44.65000 36000 ft 450 kts 151°
2026-05-07 15:08 49.04928 44.69548 36003 ft 450 kts 152°
2026-05-07 15:09 48.99414 44.74066 36005 ft 450 kts 152°
2026-05-07 15:09 48.93896 44.78577 36010 ft 450 kts 152°
2026-05-07 15:10 48.88379 44.83078 36006 ft 450 kts 152°
2026-05-07 15:10 48.82861 44.87569 36006 ft 450 kts 152°
2026-05-07 15:11 48.77339 44.92052 36008 ft 450 kts 152°
2026-05-07 15:11 48.71819 44.96522 36003 ft 450 kts 152°
2026-05-07 15:12 48.66341 45.00948 36002 ft 449 kts 152°
2026-05-07 15:12 48.60824 45.05393 36001 ft 449 kts 152°
2026-05-07 15:13 48.55310 45.09825 36000 ft 449 kts 152°
2026-05-07 15:13 48.49794 45.14247 36001 ft 449 kts 152°
2026-05-07 15:14 48.44278 45.18659 35999 ft 449 kts 152°
2026-05-07 15:14 48.38763 45.23058 35997 ft 449 kts 152°
2026-05-07 15:15 48.33240 45.27454 35995 ft 449 kts 152°
2026-05-07 15:15 48.27720 45.31836 35998 ft 449 kts 152°
2026-05-07 15:16 48.22199 45.36209 36000 ft 449 kts 152°
2026-05-07 15:16 48.16675 45.40572 35997 ft 449 kts 152°
2026-05-07 15:17 48.11179 45.44903 35997 ft 449 kts 152°
2026-05-07 15:17 48.05651 45.49249 35999 ft 449 kts 152°
2026-05-07 15:18 48.00121 45.53585 35998 ft 449 kts 152°
2026-05-07 15:18 47.94584 45.57917 35999 ft 449 kts 152°
2026-05-07 15:19 47.89051 45.62235 36000 ft 449 kts 152°
2026-05-07 15:19 47.83509 45.66548 36001 ft 449 kts 153°
2026-05-07 15:20 47.77966 45.70853 36001 ft 449 kts 153°
2026-05-07 15:20 47.72420 45.75150 36001 ft 449 kts 153°
2026-05-07 15:21 47.66913 45.79406 36004 ft 449 kts 153°
2026-05-07 15:21 47.61366 45.83682 36001 ft 449 kts 153°
2026-05-07 15:22 47.55814 45.87952 36001 ft 449 kts 153°
2026-05-07 15:22 47.50265 45.92210 36000 ft 449 kts 153°
2026-05-07 15:23 47.44715 45.96458 36002 ft 449 kts 153°
2026-05-07 15:23 47.39168 46.00694 36000 ft 449 kts 153°
2026-05-07 15:24 47.33615 46.04924 35999 ft 449 kts 153°
2026-05-07 15:24 47.28100 46.09116 36002 ft 449 kts 153°
2026-05-07 15:25 47.22545 46.13327 35999 ft 449 kts 153°
2026-05-07 15:25 47.16989 46.17530 36001 ft 449 kts 153°
2026-05-07 15:26 47.11435 46.21722 35999 ft 449 kts 153°
2026-05-07 15:26 47.06065 46.26356 35999 ft 449 kts 141°
2026-05-07 15:27 47.03817 46.29523 35996 ft 449 kts 130°
2026-05-07 15:27 47.01973 46.33212 35999 ft 449 kts 122°
2026-05-07 15:27 46.98641 46.40951 35996 ft 449 kts 122°
2026-05-07 15:28 46.95856 46.47365 35997 ft 449 kts 122°
2026-05-07 15:28 46.92491 46.55078 35999 ft 449 kts 123°
2026-05-07 15:29 46.89120 46.62778 36000 ft 450 kts 123°
2026-05-07 15:29 46.85742 46.70476 36001 ft 450 kts 123°
2026-05-07 15:30 46.82357 46.78166 36003 ft 450 kts 123°
2026-05-07 15:30 46.78965 46.85854 36003 ft 450 kts 123°
2026-05-07 15:31 46.75568 46.93529 36004 ft 450 kts 123°
2026-05-07 15:31 46.72190 47.01141 36006 ft 450 kts 123°
2026-05-07 15:32 46.68786 47.08797 36003 ft 450 kts 123°
2026-05-07 15:32 46.65431 47.16504 36004 ft 450 kts 122°
2026-05-07 15:33 46.62088 47.24200 36003 ft 450 kts 122°
2026-05-07 15:33 46.58734 47.31878 36002 ft 450 kts 122°
2026-05-07 15:34 46.55373 47.39542 36002 ft 450 kts 122°
2026-05-07 15:34 46.52003 47.47204 36001 ft 450 kts 123°
2026-05-07 15:35 46.48633 47.54845 36000 ft 449 kts 123°
2026-05-07 15:35 46.45256 47.62481 35998 ft 449 kts 123°
2026-05-07 15:36 46.41873 47.70109 36002 ft 449 kts 123°
2026-05-07 15:36 46.38510 47.77671 35997 ft 449 kts 123°
2026-05-07 15:37 46.35120 47.85275 35997 ft 449 kts 123°
2026-05-07 15:37 46.31724 47.92871 36000 ft 449 kts 123°
2026-05-07 15:38 46.28630 48.00707 36000 ft 449 kts 113°
2026-05-07 15:38 46.26818 48.09337 35995 ft 449 kts 102°
2026-05-07 15:39 46.25495 48.18162 36001 ft 449 kts 102°
2026-05-07 15:39 46.24145 48.26981 36004 ft 450 kts 102°
2026-05-07 15:40 46.22785 48.35799 35998 ft 450 kts 102°
2026-05-07 15:40 46.21418 48.44613 36001 ft 450 kts 103°
2026-05-07 15:41 46.19605 48.53223 36002 ft 449 kts 118°
2026-05-07 15:41 46.17889 48.56979 35996 ft 449 kts 130°
2026-05-07 15:41 46.15685 48.60068 35992 ft 448 kts 143°
2026-05-07 15:42 46.13042 48.62424 35994 ft 447 kts 155°
2026-05-07 15:42 46.10115 48.63921 35993 ft 447 kts 165°
2026-05-07 15:42 46.04094 48.66195 35993 ft 447 kts 165°
2026-05-07 15:43 45.98083 48.68524 35995 ft 448 kts 165°
2026-05-07 15:43 45.92064 48.70926 36000 ft 449 kts 165°
2026-05-07 15:44 45.86048 48.73336 36003 ft 449 kts 165°
2026-05-07 15:44 45.80019 48.75746 36005 ft 449 kts 165°
2026-05-07 15:45 45.73998 48.78146 36006 ft 449 kts 165°
2026-05-07 15:45 45.67973 48.80542 36006 ft 449 kts 165°
2026-05-07 15:46 45.58931 48.84128 36006 ft 449 kts 165°
2026-05-07 15:47 45.52899 48.86513 36007 ft 449 kts 165°
2026-05-07 15:47 45.46911 48.88876 36004 ft 449 kts 165°
2026-05-07 15:48 45.40886 48.91248 36002 ft 449 kts 165°
2026-05-07 15:48 45.34868 48.93612 36001 ft 449 kts 165°
2026-05-07 15:49 45.28850 48.95971 36002 ft 448 kts 165°
2026-05-07 15:49 45.22837 48.98323 35998 ft 448 kts 165°
2026-05-07 15:50 45.16822 49.00671 35998 ft 448 kts 165°
2026-05-07 15:50 45.10804 49.03014 35995 ft 448 kts 165°
2026-05-07 15:51 45.04830 49.05335 35997 ft 448 kts 165°
2026-05-07 15:51 44.98816 49.07667 35995 ft 448 kts 165°
2026-05-07 15:52 44.92799 49.09995 36000 ft 448 kts 165°
2026-05-07 15:52 44.86778 49.12319 35999 ft 448 kts 165°
2026-05-07 15:53 44.80760 49.14637 35997 ft 448 kts 165°
2026-05-07 15:53 44.74744 49.16949 36001 ft 448 kts 165°
2026-05-07 15:54 44.68721 49.19259 35999 ft 448 kts 165°
2026-05-07 15:54 44.62697 49.21565 35999 ft 449 kts 165°
2026-05-07 15:55 44.56674 49.23865 36004 ft 449 kts 165°
2026-05-07 15:55 44.50646 49.26162 36004 ft 449 kts 165°
2026-05-07 15:56 44.44617 49.28455 36001 ft 449 kts 165°
2026-05-07 15:56 44.38631 49.30726 36001 ft 449 kts 165°
2026-05-07 15:57 44.32565 49.33023 36001 ft 449 kts 165°
2026-05-07 15:57 44.26578 49.35285 36000 ft 449 kts 165°
2026-05-07 15:58 44.20552 49.37557 36000 ft 449 kts 165°
2026-05-07 15:58 44.14525 49.39825 36000 ft 449 kts 165°
2026-05-07 15:59 44.08497 49.42088 36001 ft 449 kts 165°
2026-05-07 15:59 44.02472 49.44345 36003 ft 448 kts 166°
2026-05-07 15:59 43.99397 49.45031 35999 ft 448 kts 178°
2026-05-07 16:00 43.96294 49.44781 35997 ft 447 kts 191°
2026-05-07 16:00 43.93312 49.43603 35990 ft 446 kts 203°
2026-05-07 16:00 43.90594 49.41558 35991 ft 445 kts 216°
2026-05-07 16:00 43.88266 49.38741 35987 ft 445 kts 228°
2026-05-07 16:01 43.86442 49.35291 35984 ft 444 kts 241°
2026-05-07 16:01 43.85212 49.31377 35990 ft 444 kts 253°
2026-05-07 16:01 43.84588 49.27196 35985 ft 444 kts 261°
2026-05-07 16:02 43.83603 49.18739 35988 ft 445 kts 261°
2026-05-07 16:02 43.82580 49.10282 35998 ft 446 kts 261°
2026-05-07 16:03 43.81546 49.01819 36003 ft 446 kts 260°
2026-05-07 16:03 43.80503 48.93338 36006 ft 447 kts 260°
2026-05-07 16:04 43.79452 48.84855 36009 ft 447 kts 260°
2026-05-07 16:04 43.78404 48.76421 36012 ft 448 kts 260°
2026-05-07 16:05 43.77342 48.67934 36012 ft 448 kts 260°
2026-05-07 16:05 43.76275 48.59453 36012 ft 447 kts 260°
2026-05-07 16:06 43.75199 48.50973 36010 ft 447 kts 260°
2026-05-07 16:06 43.74113 48.42501 36008 ft 447 kts 260°
2026-05-07 16:07 43.73022 48.34039 36005 ft 447 kts 260°
2026-05-07 16:07 43.71927 48.25590 36002 ft 446 kts 260°
2026-05-07 16:08 43.70827 48.17153 35999 ft 446 kts 260°
2026-05-07 16:08 43.69721 48.08726 35997 ft 446 kts 259°
2026-05-07 16:09 43.68609 48.00295 35998 ft 446 kts 259°
2026-05-07 16:09 43.67491 47.91877 35997 ft 445 kts 259°
2026-05-07 16:10 43.66367 47.83458 35994 ft 445 kts 259°
2026-05-07 16:10 43.65238 47.75048 35993 ft 445 kts 259°
2026-05-07 16:11 43.64109 47.66695 35998 ft 445 kts 259°
2026-05-07 16:11 43.62967 47.58290 35996 ft 446 kts 259°
2026-05-07 16:12 43.61831 47.49880 35995 ft 446 kts 261°
2026-05-07 16:12 43.61116 47.41390 36003 ft 446 kts 264°
2026-05-07 16:13 43.60423 47.32886 35999 ft 446 kts 263°
2026-05-07 16:13 43.59717 47.24387 36000 ft 446 kts 263°
2026-05-07 16:14 43.59001 47.15890 36003 ft 446 kts 263°
2026-05-07 16:14 43.58279 47.07391 36001 ft 446 kts 263°
2026-05-07 16:15 43.57549 46.98889 36001 ft 446 kts 263°
2026-05-07 16:15 43.56814 46.90395 36001 ft 446 kts 263°
2026-05-07 16:16 43.56073 46.81901 36001 ft 446 kts 263°
2026-05-07 16:16 43.55326 46.73411 36000 ft 446 kts 263°
2026-05-07 16:17 43.54699 46.66353 36000 ft 446 kts 263°
2026-05-07 16:17 43.53940 46.57866 36000 ft 446 kts 263°
2026-05-07 16:18 43.53175 46.49381 35999 ft 446 kts 263°
2026-05-07 16:18 43.52403 46.40901 36002 ft 446 kts 263°
2026-05-07 16:19 43.51626 46.32423 36000 ft 446 kts 263°
2026-05-07 16:19 43.50842 46.23950 35998 ft 446 kts 263°
2026-05-07 16:20 43.50051 46.15470 35997 ft 446 kts 263°
2026-05-07 16:20 43.49267 46.06995 35997 ft 446 kts 265°
2026-05-07 16:21 43.49425 45.98483 36000 ft 446 kts 277°
2026-05-07 16:21 43.50149 45.89999 36001 ft 446 kts 276°
2026-05-07 16:22 43.50847 45.81561 35996 ft 446 kts 276°
2026-05-07 16:22 43.51541 45.73069 35994 ft 446 kts 276°
2026-05-07 16:23 43.52230 45.64577 35994 ft 446 kts 276°
2026-05-07 16:23 43.52913 45.56075 36000 ft 446 kts 276°
2026-05-07 16:24 43.53590 45.47556 36004 ft 447 kts 276°
2026-05-07 16:24 43.54262 45.39034 35997 ft 447 kts 276°
2026-05-07 16:25 43.54927 45.30513 35997 ft 447 kts 276°
2026-05-07 16:25 43.55581 45.22046 35996 ft 447 kts 276°
2026-05-07 16:26 43.56234 45.13515 35989 ft 447 kts 276°
2026-05-07 16:26 43.56881 45.04985 35998 ft 447 kts 276°
2026-05-07 16:27 43.57521 44.96445 36003 ft 448 kts 276°
2026-05-07 16:27 43.58156 44.87889 35995 ft 448 kts 276°
2026-05-07 16:28 43.58784 44.79346 36000 ft 448 kts 276°
2026-05-07 16:28 43.59406 44.70792 36005 ft 448 kts 276°
2026-05-07 16:29 43.60022 44.62242 36003 ft 448 kts 275°
2026-05-07 16:29 43.60631 44.53685 36007 ft 448 kts 275°
2026-05-07 16:30 43.61234 44.45119 36008 ft 448 kts 275°
2026-05-07 16:30 43.61831 44.36561 36005 ft 448 kts 275°
2026-05-07 16:31 43.62421 44.28003 36004 ft 448 kts 275°
2026-05-07 16:31 43.63006 44.19500 36007 ft 448 kts 277°
2026-05-07 16:31 43.63688 44.15316 36003 ft 447 kts 289°
2026-05-07 16:32 43.65005 44.11437 35998 ft 447 kts 302°
2026-05-07 16:32 43.68971 44.04894 35541 ft 442 kts 312°
2026-05-07 16:32 43.71052 44.01780 35059 ft 440 kts 312°
2026-05-07 16:33 43.73116 43.98682 34548 ft 436 kts 312°
2026-05-07 16:33 43.75163 43.95599 33969 ft 432 kts 312°
2026-05-07 16:33 43.77186 43.92545 33382 ft 428 kts 312°
2026-05-07 16:33 43.79187 43.89517 32805 ft 425 kts 312°
2026-05-07 16:34 43.81172 43.86511 32230 ft 421 kts 312°
2026-05-07 16:34 43.83138 43.83530 31647 ft 417 kts 312°
2026-05-07 16:34 43.85029 43.80513 31088 ft 413 kts 307°
2026-05-07 16:34 43.86708 43.77308 30515 ft 409 kts 306°
2026-05-07 16:35 43.88349 43.74163 29961 ft 406 kts 306°
2026-05-07 16:35 43.89999 43.71017 29402 ft 402 kts 306°
2026-05-07 16:35 43.91638 43.67889 28837 ft 398 kts 306°
2026-05-07 16:35 43.93257 43.64794 28291 ft 395 kts 306°
2026-05-07 16:36 43.94864 43.61715 27727 ft 391 kts 306°
2026-05-07 16:36 43.96453 43.58667 27177 ft 388 kts 306°
2026-05-07 16:36 43.98027 43.55644 26627 ft 385 kts 306°
2026-05-07 16:36 43.99587 43.52644 26081 ft 381 kts 306°
2026-05-07 16:37 44.01134 43.49666 25531 ft 378 kts 306°
2026-05-07 16:37 44.02666 43.46715 24984 ft 375 kts 306°
2026-05-07 16:37 44.04183 43.43788 24454 ft 372 kts 306°
2026-05-07 16:37 44.05688 43.40883 23912 ft 368 kts 306°
2026-05-07 16:38 44.07175 43.38009 23375 ft 365 kts 306°
2026-05-07 16:38 44.08657 43.35142 22842 ft 362 kts 305°
2026-05-07 16:38 44.10121 43.32307 22328 ft 359 kts 305°
2026-05-07 16:38 44.11573 43.29491 21795 ft 356 kts 305°
2026-05-07 16:39 44.12995 43.26734 21276 ft 354 kts 305°
2026-05-07 16:39 44.14422 43.23962 20758 ft 351 kts 305°
2026-05-07 16:39 44.15837 43.21211 20249 ft 348 kts 305°
2026-05-07 16:39 44.17242 43.18477 19739 ft 345 kts 305°
2026-05-07 16:40 44.18632 43.15771 19260 ft 342 kts 305°
2026-05-07 16:40 44.20012 43.13080 18751 ft 340 kts 305°
2026-05-07 16:40 44.21379 43.10413 18249 ft 337 kts 305°
2026-05-07 16:40 44.22736 43.07763 17751 ft 334 kts 305°
2026-05-07 16:41 44.24218 43.05280 17255 ft 332 kts 314°
2026-05-07 16:41 44.25948 43.03165 16763 ft 330 kts 322°
2026-05-07 16:41 44.27756 43.01209 16266 ft 327 kts 322°
2026-05-07 16:41 44.29541 42.99256 15780 ft 325 kts 321°
2026-05-07 16:42 44.31309 42.97313 15293 ft 323 kts 321°
2026-05-07 16:42 44.33067 42.95379 14813 ft 320 kts 321°
2026-05-07 16:42 44.34810 42.93459 14332 ft 318 kts 321°
2026-05-07 16:42 44.36541 42.91552 13850 ft 316 kts 321°
2026-05-07 16:43 44.38262 42.89656 13370 ft 314 kts 321°
2026-05-07 16:43 44.39969 42.87774 12888 ft 312 kts 321°
2026-05-07 16:43 44.41666 42.85902 12404 ft 310 kts 321°
2026-05-07 16:43 44.43353 42.84039 11936 ft 307 kts 321°
2026-05-07 16:44 44.45023 42.82190 11465 ft 305 kts 321°
2026-05-07 16:44 44.46677 42.80350 11003 ft 303 kts 321°
2026-05-07 16:44 44.48324 42.78530 10522 ft 301 kts 321°
2026-05-07 16:44 44.49963 42.76721 10070 ft 298 kts 321°
2026-05-07 16:45 44.51586 42.74925 9597 ft 296 kts 321°
2026-05-07 16:45 44.53197 42.73141 9122 ft 295 kts 321°
2026-05-07 16:45 44.54799 42.71364 8655 ft 293 kts 321°
2026-05-07 16:45 44.56387 42.69600 8177 ft 291 kts 321°
2026-05-07 16:46 44.57971 42.67838 7729 ft 289 kts 321°
2026-05-07 16:46 44.59537 42.66094 7292 ft 286 kts 321°
2026-05-07 16:46 44.61107 42.64414 7056 ft 285 kts 323°
2026-05-07 16:46 44.62705 42.62750 7001 ft 286 kts 323°
2026-05-07 16:47 44.64302 42.61092 7003 ft 285 kts 323°
2026-05-07 16:47 44.65897 42.59429 7000 ft 286 kts 323°
2026-05-07 16:47 44.67489 42.57760 6999 ft 286 kts 323°
2026-05-07 16:47 44.69081 42.56086 6995 ft 286 kts 323°
2026-05-07 16:48 44.70654 42.54429 6997 ft 286 kts 323°
2026-05-07 16:48 44.72243 42.52752 6998 ft 286 kts 323°
2026-05-07 16:48 44.73834 42.51073 7003 ft 286 kts 323°
2026-05-07 16:48 44.75423 42.49394 7003 ft 286 kts 322°
2026-05-07 16:49 44.77014 42.47702 7003 ft 286 kts 322°
2026-05-07 16:49 44.78596 42.46012 7003 ft 286 kts 322°
2026-05-07 16:49 44.80177 42.44322 7000 ft 285 kts 322°
2026-05-07 16:49 44.81877 42.42901 7003 ft 286 kts 339°
2026-05-07 16:50 44.83824 42.42365 7000 ft 287 kts 359°
2026-05-07 16:50 44.85820 42.42425 6998 ft 287 kts
2026-05-07 16:50 44.87818 42.42496 6997 ft 288 kts
2026-05-07 16:50 44.89822 42.42562 7003 ft 287 kts
2026-05-07 16:51 44.91820 42.42623 7002 ft 287 kts
2026-05-07 16:51 44.93816 42.42683 7001 ft 287 kts
2026-05-07 16:51 44.95801 42.42742 6821 ft 284 kts
2026-05-07 16:51 44.97775 42.42799 6422 ft 283 kts
2026-05-07 16:52 44.99741 42.42856 5980 ft 282 kts
2026-05-07 16:52 45.01697 42.42913 5550 ft 279 kts
2026-05-07 16:52 45.03592 42.42968 5394 ft 265 kts
2026-05-07 16:52 45.05376 42.43016 5183 ft 250 kts 359°
2026-05-07 16:53 45.07084 42.42762 4723 ft 246 kts 347°
2026-05-07 16:53 45.08735 42.42154 4236 ft 244 kts 345°
2026-05-07 16:53 45.10360 42.41556 3889 ft 234 kts 345°
2026-05-07 16:53 45.11879 42.41008 3734 ft 216 kts 345°
2026-05-07 16:54 45.13284 42.40503 3600 ft 201 kts 345°
2026-05-07 16:54 45.14514 42.39717 3357 ft 191 kts 319°
2026-05-07 16:54 45.15202 42.38260 2997 ft 170 kts 287°
2026-05-07 16:54 45.15334 42.36506 2894 ft 186 kts 267°
2026-05-07 16:55 45.15145 42.34720 2870 ft 187 kts 258°
2026-05-07 16:55 45.14836 42.32954 2870 ft 180 kts 255°
2026-05-07 16:55 45.14526 42.31251 2870 ft 178 kts 256°
2026-05-07 16:55 45.14223 42.29565 2870 ft 176 kts 256°
2026-05-07 16:56 45.13920 42.27881 2870 ft 176 kts 256°
2026-05-07 16:56 45.13617 42.26202 2870 ft 175 kts 256°
2026-05-07 16:56 45.13054 42.23075 2767 ft 162 kts 256°
2026-05-07 16:57 45.12779 42.21545 2570 ft 160 kts 256°
2026-05-07 16:57 45.12505 42.20025 2391 ft 159 kts 256°
2026-05-07 16:57 45.12231 42.18508 2199 ft 159 kts 256°
2026-05-07 16:57 45.11959 42.16996 2006 ft 159 kts 256°
2026-05-07 16:58 45.11686 42.15483 1819 ft 159 kts 256°
2026-05-07 16:58 45.11414 42.13974 1631 ft 158 kts 256°
2026-05-07 16:58 45.11146 42.12482 1517 ft 155 kts 255°
2026-05-07 16:58 45.10903 42.11053 1476 ft 107 kts 256°
2026-05-07 16:59 45.10839 42.10701 1486 ft 0 kts 254°
2026-05-07 16:59 45.10822 42.10598 1475 ft 5 kts 256°
2026-05-07 16:59 45.10799 42.10487 1487 ft 23 kts 253°
2026-05-07 16:59 45.10738 42.10160 1478 ft 49 kts 255°
2026-05-07 17:00 45.10662 42.09772 1475 ft 16 kts 261°
2026-05-07 17:00 45.10724 42.09644 1473 ft 19 kts 344°
2026-05-07 17:00 45.10811 42.09616 1476 ft 0 kts 347°
2026-05-07 17:01 45.10856 42.09612 1470 ft 13 kts 14°
2026-05-07 17:01 45.10909 42.09763 1479 ft 23 kts 80°
2026-05-07 17:02 45.10954 42.09992 1476 ft 21 kts 82°
2026-05-07 17:02 45.10984 42.10189 1477 ft 19 kts 71°
2026-05-07 17:02 45.11017 42.10369 1477 ft 19 kts 75°
2026-05-07 17:02 45.11038 42.10448 1472 ft 5 kts 36°
2026-05-07 17:03 45.11105 42.10450 1475 ft 13 kts 345°
2026-05-07 17:03 45.11172 42.10421 1468 ft 2 kts 342°
2026-05-07 17:03 45.11179 42.10419 1473 ft 3 kts 348°
2026-05-07 17:03 45.11182 42.10418 1473 ft 0 kts 348°